GLOBAL-14 (49469 NORAD) Tracking and Keplerian Element Data

This shows tracking and keplerian element data for the satellite.

Feedback or suggestion? Click here.




ElementValue
Catalog49469
NameGLOBAL-14
Epoch Orbit280
Epoch Day340.19921555
Epoch Year2021
RAAN269.8132
Inclination42.0169
Eccentricity0.0006004
Argument of Perigee31.0036
Mean Anonmoly329.2086
Mean Motion15.4449288
Decay Rate4.459E-05
L11 49469U 21106A 21340.19921555 .00004459 00000+0 10000-3 0 9994
L22 49469 42.0169 269.8132 0006004 31.0036 329.2086 15.44492880 2805

Live tracking and technical data element details for GLOBAL-14 (NORAD 49469). GLOBAL-14 can be tracked NOW for your location showing map with azimuth and elevation plus other details from your city location.

Track the satellite on the map from your city or location and see movement details for azimuth, elevation, latitude, longitude, range, height, and movement on the map or in text.







IsCatalogInMostPopularTable: catalog: 49469, numindb: 1
Update: records affected: 1



GetName: 49469 GLOBAL-14

Hit Count: updated at: Wed, 08 Dec 2021 15:33:50 GMT